Regional Weather Roundup
Issued by NWS

Home | Current Version | Previous Version | Graphics & Text | Print | Product List | Glossary On
Versions: 1 2 3 4 5 6 7 8 9 10 11 12 13 14 15 16 17 18 19 20 21 22 23 24 25 26 27 28 29 30 31 32 33 34 35 36 37 38 39 40 41 42 43 44 45 46 47 48 49 50
000
ASUS45 KTFX 300619
RWRMT
MONTANA HOURLY WEATHER ROUNDUP
NATIONAL WEATHER SERVICE GREAT FALLS MT
1219 AM MDT SAT AUG 30 2014

NOTE: "FAIR" INDICATES FEW OR NO CLOUDS BELOW 12000 FEET WITH NO
SIGNIFICANT WEATHER AND/OR OBSTRUCTIONS TO VISIBILITY.

* THESE STATIONS ARE NOT UNDER NWS QUALITY CONTROL. THEY DO NOT
   REPORT WEATHER SUCH AS PRECIPITATION OR FOG.

MTZ001>007-043-300700-
WEST OF THE DIVIDE
CITY           SKY/WX    TMP DP  RH WIND       PRES   REMARKS
KALISPELL      CLOUDY    63  45  52 SW3       29.79R
MISSOULA       CLOUDY    72  34  25 N8        29.85R
BUTTE          PTCLDY    55  46  72 S10       29.95F
MULLAN PASS    CLOUDY    54  36  51 SW7       29.98S
* LINCOLN      N/A       51  44  77 SE2        N/A
* LOOKOUT PASS N/A       62  39  43 SE5        N/A
* POLSON       N/A       67  31  26 SE2        N/A
* RONAN APT    CLOUDY    70  37  30 N/A        N/A
* SEELEY LAKE  N/A       52  40  64 N/A        N/A
* THOMP F APT  CLOUDY    58  38  47 NE4        N/A
$$

MTZ008-052>055-300700-
SOUTHWEST MONTANA
CITY           SKY/WX    TMP DP  RH WIND       PRES   REMARKS
BOZEMAN        MOCLDY    72  41  33 S29G41    29.87F
DILLON         MOCLDY    61  46  58 S3        29.91F
W YELLOWSTONE  PTCLDY    46  45  96 S5        30.09F
* THREE FORKS  CLOUDY    72  54  53 NW5        N/A
* BOULDER HILL N/A       55  41  59 NE4G9      N/A
* MONIDA PASS  N/A       51  46  83 NE1        N/A
* RAYNOLDS PAS N/A       53  39  59 S2         N/A
* WHITEHALL    N/A       68  45  44 W6G17      N/A
* WISE RIVER   N/A       58  41  53 SE5G10     N/A
$$

MTZ009>010-012-014-046-048-049-054-300700-
EAST SLOPES AND CENTRAL MONTANA
CITY           SKY/WX    TMP DP  RH WIND       PRES   REMARKS
CUT BANK       MOCLDY    63  43  48 S3        29.78F
GREAT FALLS    PTCLDY    64  45  50 S9        29.78F
HELENA         CLOUDY    66  45  47 NW5       29.84F
MALMSTROM AFB  PTCLDY    63  45  52 VRB2      29.79S
* CONRAD       MOCLDY    50  46  86 N/A        N/A
* EAST GLACIER N/A       65  33  30 W12G19     N/A
* MONARCH      N/A       54  38  55 S12        N/A
* PENDROY      N/A       63  36  37 NW12       N/A
* ROGERS PASS  N/A       57  31  37 NW3        N/A
* SAINT MARY   N/A       66  36  33 SW8G16     N/A
* SWEET GRASS  N/A       64  54  70 S18G24     N/A
* WHITE SULPH  N/A       61  51  70 NE6G11     N/A
$$

MTZ011-013-016-021-035-040-045-047-050-051-300700-
NORTH CENTRAL MONTANA
CITY           SKY/WX    TMP DP  RH WIND       PRES   REMARKS
HAVRE          CLEAR     70  52  53 SE10G22   29.73F
LEWISTOWN      CLEAR     61  52  72 E8        29.86F
* CHINOOK      CLEAR     61  55  81 E13G20    29.76F
* FORT BENTON  CLEAR     66  52  61 E6        29.75F
* CHESTER      N/A       63  52  68 SE7G13     N/A
* DENTON       N/A       64  50  61 S9         N/A
* GEYSER       N/A       52  46  80 SW4        N/A
* JUDITH GAP   N/A       61  50  67 SE9G16     N/A
* LOMA         N/A       66  53  63 E11G16     N/A
$$

MTZ017>020-022>027-061-062-300700-
NORTHEAST MONTANA
CITY           SKY/WX    TMP DP  RH WIND       PRES   REMARKS
GLASGOW        CLEAR     57  52  83 E13       29.87F
GLENDIVE       FAIR      57  52  83 SE5       29.96F
JORDAN         CLEAR     57  54  90 SE5       29.89F
SIDNEY         CLEAR     55  52  90 CALM      29.96F
WOLF POINT     CLEAR     59  50  72 E5        29.91F
* BEAVER HILL  N/A       56  52  87 SE13       N/A
* CIRCLE       N/A       57  52  83 SE5        N/A
* LINDSAY DVD  N/A       52  49  90 E6         N/A
* NAVAJO       N/A       56  49  77 S8         N/A
$$

MTZ028>042-056>058-300700-
SOUTHCENTRAL AND SOUTHEAST MONTANA
CITY           SKY/WX    TMP DP  RH WIND       PRES   REMARKS
BAKER          CLEAR     54  52  93 SE8       30.00F
BILLINGS       CLEAR     66  52  61 N3        29.87F
LIVINGSTON     MOCLDY    64  50  61 SE6       29.91S
MILES CITY     CLEAR     57  50  78 S6        29.92F
* LAUREL APT   CLEAR     63  50  63 N5         N/A
* ROUNDUP APT  CLEAR     61  50  67 N/A        N/A
* ALZADA       N/A       55  52  90 E7         N/A
* HYSHAM       N/A       64  47  54 SE12       N/A
* LAME DEER    N/A       60  51  72 SE9G14     N/A
* REED POINT   N/A       64  56  75 SE8        N/A
* ROSCOE HILL  N/A       62  40  45 W1G7       N/A
$$

REGIONAL REPORTS...DAKOTAS
CITY           SKY/WX    TMP DP  RH WIND       PRES   REMARKS
WILLISTON      CLEAR     52  48  86 CALM      29.96S
DICKINSON      CLEAR     52  48  86 SE8       29.98S
BEACH          N/A       50  50 100 SE9       29.99F
CROSBY         CLEAR     50  50 100 S6        29.96S
TIOGA          CLEAR     45  45 100 CALM      30.00S
WATFORD CITY   CLEAR     50  48  93 CALM      29.95S
BISMARCK       CLEAR     54  52  93 CALM      29.99S
GRAND FORKS    PTCLDY    55  52  90 N9        29.91S
FARGO          CLOUDY    63  57  81 N16G24    29.87S
BUFFALO SD     CLEAR     55  52  90 E6        29.95S
RAPID CITY     CLEAR     55  52  90 E3        30.04S
$$

REGIONAL REPORTS...WYOMING/IDAHO/WASHINGTON
CITY           SKY/WX    TMP DP  RH WIND       PRES   REMARKS
GILLETTE       PTCLDY    63  52  68 S16       30.01F
SHERIDAN       CLEAR     61  48  62 SE5       29.95F
CODY           CLEAR     59  46  62 CALM      29.97F
YELLOWSTONE LA MOCLDY    46  39  77 NW3       30.20S
SALMON         MOCLDY    61  52  72 CALM      29.83F
MULLAN PASS    CLOUDY    54  36  51 SW7       29.98S
SAND POINT     CLOUDY    63  46  54 CALM      29.80S
SPOKANE        CLOUDY    64  41  43 SW9       29.83S
$$

REGIONAL REPORTS...ALBERTA
CITY           SKY/WX    TMP DP  RH WIND       PRES   REMARKS
CALGARY        MOCLDY    57  46  67 SW5       29.70S
LETHBRIDGE     PTCLDY    57  46  67 SW10      29.70F
MEDICINE HAT   CLEAR     68  52  57 S16G24    29.65F
EDMONTON       LGT RAIN  59  54  84 SW8       29.64R
WATERTON GATE  N/A       63  36  37 W9G21      N/A
CARDSTON       N/A       57  43  60 SW7        N/A
MILK RIVER     N/A       61  50  67 S12        N/A
$$

REGIONAL REPORTS...SASKATCHEWAN
CITY           SKY/WX    TMP DP  RH WIND       PRES   REMARKS
SWIFT CURRENT  CLEAR     59  50  72 S18G25    29.79F
REGINA         N/A       54  45  72 SE12      29.92S
VAL MARIE      N/A       59  50  72 SE12       N/A
ASSINIBOIA     N/A       52  46  80 SE6        N/A
CORONACH       N/A       52  48  86 SE6        N/A

$$




USA.gov is the U.S. government's official web portal to all federal, state and local government web resources and services.